Time,TemperatureF,DewpointF,PressureIn,WindDirection,WindDirectionDegrees,WindSpeedMPH,WindSpeedGustMPH,Humidity,HourlyPrecipIn,Conditions,Clouds,dailyrainin,SoftwareType,DateUTC
2013-01-20 00:04:00,41.0,29.0,29.89,SSW,193,0.0,7.0,62,0.00,,,0.00,,2013-01-20 05:04:00,
2013-01-20 00:12:00,41.0,29.0,29.89,SSW,193,0.0,7.0,62,0.00,,,0.00,,2013-01-20 05:12:00,
2013-01-20 00:22:00,40.0,29.0,29.88,SSW,196,0.0,4.0,64,0.00,,,0.00,,2013-01-20 05:22:00,
2013-01-20 00:33:00,40.0,29.0,29.86,South,178,3.0,7.0,65,0.00,,,0.00,,2013-01-20 05:33:00,
2013-01-20 00:43:00,40.0,29.0,29.86,South,178,3.0,7.0,65,0.00,,,0.00,,2013-01-20 05:43:00,
2013-01-20 00:53:00,40.0,29.0,29.85,SSE,168,2.0,5.0,65,0.00,,,0.00,,2013-01-20 05:53:00,
2013-01-20 01:02:00,39.0,29.0,29.84,South,179,0.0,5.0,67,0.00,,,0.00,,2013-01-20 06:02:00,
2013-01-20 01:12:00,39.0,29.0,29.84,South,179,0.0,5.0,67,0.00,,,0.00,,2013-01-20 06:12:00,
2013-01-20 01:22:00,39.0,29.0,29.83,South,181,2.0,6.0,68,0.00,,,0.00,,2013-01-20 06:22:00,
2013-01-20 01:33:00,39.0,29.0,29.83,South,171,0.0,3.0,68,0.00,,,0.00,,2013-01-20 06:33:00,
2013-01-20 01:43:00,39.0,29.0,29.83,South,171,0.0,3.0,68,0.00,,,0.00,,2013-01-20 06:43:00,
2013-01-20 01:52:00,38.0,28.0,29.83,South,181,0.0,1.0,68,0.00,,,0.00,,2013-01-20 06:52:00,
2013-01-20 02:02:00,38.0,28.0,29.82,South,191,5.0,6.0,67,0.00,,,0.00,,2013-01-20 07:02:00,
2013-01-20 02:12:00,38.0,28.0,29.82,South,191,5.0,6.0,67,0.00,,,0.00,,2013-01-20 07:12:00,
2013-01-20 02:22:00,38.0,28.0,29.83,SSW,202,0.0,4.0,67,0.00,,,0.00,,2013-01-20 07:22:00,
2013-01-20 02:32:00,39.0,28.0,29.82,SSW,210,0.0,3.0,65,0.00,,,0.00,,2013-01-20 07:32:00,
2013-01-20 02:42:00,39.0,28.0,29.82,SSW,210,0.0,3.0,65,0.00,,,0.00,,2013-01-20 07:42:00,
2013-01-20 02:52:00,39.0,28.0,29.81,SSW,210,0.0,4.0,65,0.00,,,0.00,,2013-01-20 07:52:00,
2013-01-20 03:02:00,38.0,27.0,29.81,SSW,210,1.0,4.0,65,0.00,,,0.00,,2013-01-20 08:02:00,
2013-01-20 03:12:00,38.0,27.0,29.81,SSW,210,1.0,4.0,65,0.00,,,0.00,,2013-01-20 08:12:00,
2013-01-20 03:22:00,39.0,28.0,29.81,SSW,200,0.0,3.0,65,0.00,,,0.00,,2013-01-20 08:22:00,
2013-01-20 03:32:00,39.0,28.0,29.80,SW,226,2.0,6.0,64,0.00,,,0.00,,2013-01-20 08:32:00,
2013-01-20 03:42:00,39.0,28.0,29.80,SW,226,2.0,6.0,64,0.00,,,0.00,,2013-01-20 08:42:00,
2013-01-20 03:52:00,40.0,28.0,29.79,SW,226,4.0,10.0,63,0.00,,,0.00,,2013-01-20 08:52:00,
2013-01-20 04:02:00,40.0,28.0,29.78,SSW,212,3.0,8.0,62,0.00,,,0.00,,2013-01-20 09:02:00,
2013-01-20 04:12:00,40.0,28.0,29.78,SSW,212,3.0,8.0,62,0.00,,,0.00,,2013-01-20 09:12:00,
2013-01-20 04:22:00,40.0,28.0,29.77,SSW,202,6.0,6.0,61,0.00,,,0.00,,2013-01-20 09:22:00,
2013-01-20 04:33:00,40.0,28.0,29.76,SSW,209,3.0,10.0,61,0.00,,,0.00,,2013-01-20 09:33:00,
2013-01-20 04:42:00,40.0,28.0,29.76,SSW,209,3.0,10.0,61,0.00,,,0.00,,2013-01-20 09:42:00,
2013-01-20 04:52:00,40.0,28.0,29.75,SSW,193,3.0,12.0,61,0.00,,,0.00,,2013-01-20 09:52:00,
2013-01-20 05:03:00,40.0,28.0,29.75,WSW,239,1.0,10.0,61,0.00,,,0.00,,2013-01-20 10:03:00,
2013-01-20 05:12:00,40.0,28.0,29.75,WSW,239,1.0,10.0,61,0.00,,,0.00,,2013-01-20 10:12:00,
2013-01-20 05:22:00,40.0,28.0,29.74,SSW,195,3.0,12.0,61,0.00,,,0.00,,2013-01-20 10:22:00,
2013-01-20 05:32:00,40.0,28.0,29.74,SW,216,3.0,9.0,62,0.00,,,0.00,,2013-01-20 10:32:00,
2013-01-20 05:42:00,40.0,28.0,29.74,SW,216,3.0,9.0,62,0.00,,,0.00,,2013-01-20 10:42:00,
2013-01-20 05:52:00,40.0,28.0,29.73,South,191,10.0,10.0,61,0.00,,,0.00,,2013-01-20 10:52:00,
2013-01-20 06:03:00,40.0,28.0,29.73,SSW,213,5.0,12.0,62,0.00,,,0.00,,2013-01-20 11:03:00,
2013-01-20 06:12:00,40.0,28.0,29.73,SSW,213,5.0,12.0,62,0.00,,,0.00,,2013-01-20 11:12:00,
2013-01-20 06:22:00,40.0,28.0,29.73,SSW,199,5.0,9.0,61,0.00,,,0.00,,2013-01-20 11:22:00,
2013-01-20 06:33:00,40.0,27.0,29.72,SW,232,5.0,11.0,60,0.00,,,0.00,,2013-01-20 11:33:00,
2013-01-20 06:43:00,40.0,27.0,29.72,SW,232,5.0,11.0,60,0.00,,,0.00,,2013-01-20 11:43:00,
2013-01-20 06:53:00,40.0,27.0,29.72,SSW,195,10.0,12.0,60,0.00,,,0.00,,2013-01-20 11:53:00,
2013-01-20 07:03:00,40.0,27.0,29.72,WSW,240,6.0,12.0,59,0.00,,,0.00,,2013-01-20 12:03:00,
2013-01-20 07:12:00,40.0,27.0,29.72,WSW,240,6.0,12.0,59,0.00,,,0.00,,2013-01-20 12:12:00,
2013-01-20 07:23:00,40.0,27.0,29.72,SSW,199,4.0,10.0,60,0.00,,,0.00,,2013-01-20 12:23:00,
2013-01-20 07:33:00,40.0,27.0,29.72,SW,219,4.0,10.0,59,0.00,,,0.00,,2013-01-20 12:33:00,
2013-01-20 07:43:00,40.0,27.0,29.72,SW,219,4.0,10.0,59,0.00,,,0.00,,2013-01-20 12:43:00,
2013-01-20 07:52:00,41.0,27.0,29.72,SSW,210,3.0,10.0,58,0.00,,,0.00,,2013-01-20 12:52:00,
2013-01-20 08:03:00,41.0,27.0,29.72,SW,233,6.0,11.0,58,0.00,,,0.00,,2013-01-20 13:03:00,
2013-01-20 08:12:00,41.0,27.0,29.72,SW,233,6.0,11.0,58,0.00,,,0.00,,2013-01-20 13:12:00,
2013-01-20 08:23:00,41.0,27.0,29.72,SSW,209,3.0,14.0,57,0.00,,,0.00,,2013-01-20 13:23:00,
2013-01-20 08:33:00,42.0,27.0,29.72,WSW,244,6.0,12.0,54,0.00,,,0.00,,2013-01-20 13:33:00,
2013-01-20 08:43:00,42.0,27.0,29.72,WSW,244,6.0,12.0,54,0.00,,,0.00,,2013-01-20 13:43:00,
2013-01-20 08:52:00,43.0,28.0,29.72,WSW,248,5.0,12.0,54,0.00,,,0.00,,2013-01-20 13:52:00,
2013-01-20 09:03:00,44.0,27.0,29.73,WSW,254,8.0,15.0,51,0.00,,,0.00,,2013-01-20 14:03:00,
2013-01-20 09:12:00,44.0,27.0,29.73,WSW,254,8.0,15.0,51,0.00,,,0.00,,2013-01-20 14:12:00,
2013-01-20 09:23:00,45.0,28.0,29.73,SSW,209,4.0,11.0,51,0.00,,,0.00,,2013-01-20 14:23:00,
2013-01-20 09:33:00,46.0,27.0,29.73,WSW,254,3.0,15.0,47,0.00,,,0.00,,2013-01-20 14:33:00,
2013-01-20 09:43:00,46.0,27.0,29.73,WSW,254,3.0,15.0,47,0.00,,,0.00,,2013-01-20 14:43:00,
2013-01-20 09:53:00,47.0,28.0,29.73,SW,217,5.0,18.0,47,0.00,,,0.00,,2013-01-20 14:53:00,
2013-01-20 10:03:00,49.0,29.0,29.72,WSW,246,5.0,18.0,45,0.00,,,0.00,,2013-01-20 15:03:00,
2013-01-20 10:12:00,49.0,29.0,29.72,WSW,246,5.0,18.0,45,0.00,,,0.00,,2013-01-20 15:12:00,
2013-01-20 10:23:00,50.0,28.0,29.72,SW,227,6.0,16.0,43,0.00,,,0.00,,2013-01-20 15:23:00,
2013-01-20 10:33:00,51.0,29.0,29.71,SW,222,10.0,17.0,43,0.00,,,0.00,,2013-01-20 15:33:00,
2013-01-20 10:42:00,51.0,29.0,29.71,SW,222,10.0,17.0,43,0.00,,,0.00,,2013-01-20 15:42:00,
2013-01-20 10:53:00,52.0,28.0,29.71,SW,234,10.0,18.0,40,0.00,,,0.00,,2013-01-20 15:53:00,
2013-01-20 11:03:00,52.0,28.0,29.70,WSW,246,3.0,18.0,40,0.00,,,0.00,,2013-01-20 16:03:00,
2013-01-20 11:12:00,52.0,28.0,29.70,WSW,246,3.0,18.0,40,0.00,,,0.00,,2013-01-20 16:12:00,
2013-01-20 11:23:00,52.0,28.0,29.70,WSW,237,10.0,18.0,40,0.00,,,0.00,,2013-01-20 16:23:00,
2013-01-20 11:33:00,54.0,30.0,29.71,WSW,239,7.0,19.0,39,0.00,,,0.00,,2013-01-20 16:33:00,
2013-01-20 11:43:00,54.0,30.0,29.71,WSW,239,7.0,19.0,39,0.00,,,0.00,,2013-01-20 16:43:00,
2013-01-20 11:52:00,54.0,29.0,29.70,WSW,246,10.0,18.0,38,0.00,,,0.00,,2013-01-20 16:52:00,
2013-01-20 12:03:00,55.0,29.0,29.68,West,270,4.0,17.0,37,0.00,,,0.00,,2013-01-20 17:03:00,
2013-01-20 12:13:00,55.0,29.0,29.68,West,270,4.0,17.0,37,0.00,,,0.00,,2013-01-20 17:13:00,
2013-01-20 12:22:00,55.0,29.0,29.68,WSW,244,6.0,19.0,36,0.00,,,0.00,,2013-01-20 17:22:00,
2013-01-20 12:33:00,55.0,29.0,29.68,West,264,6.0,23.0,36,0.00,,,0.00,,2013-01-20 17:33:00,
2013-01-20 12:42:00,55.0,29.0,29.68,West,264,6.0,23.0,36,0.00,,,0.00,,2013-01-20 17:42:00,
2013-01-20 12:52:00,55.0,28.0,29.67,West,263,12.0,27.0,35,0.00,,,0.00,,2013-01-20 17:52:00,
2013-01-20 13:03:00,55.0,26.0,29.67,West,274,1.0,21.0,33,0.00,,,0.00,,2013-01-20 18:03:00,
2013-01-20 13:13:00,54.0,27.0,29.68,West,265,2.0,18.0,35,0.00,,,0.00,,2013-01-20 18:13:00,
2013-01-20 13:23:00,54.0,27.0,29.68,West,265,2.0,18.0,35,0.00,,,0.00,,2013-01-20 18:23:00,
2013-01-20 13:33:00,54.0,26.0,29.68,NW,320,8.0,15.0,34,0.00,,,0.00,,2013-01-20 18:33:00,
2013-01-20 13:43:00,54.0,26.0,29.68,NW,320,8.0,15.0,34,0.00,,,0.00,,2013-01-20 18:43:00,
2013-01-20 13:53:00,56.0,29.0,29.68,West,265,3.0,17.0,35,0.00,,,0.00,,2013-01-20 18:53:00,
2013-01-20 14:03:00,55.0,27.0,29.68,West,264,11.0,15.0,34,0.00,,,0.00,,2013-01-20 19:03:00,
2013-01-20 14:12:00,55.0,27.0,29.68,West,264,11.0,15.0,34,0.00,,,0.00,,2013-01-20 19:12:00,
2013-01-20 14:22:00,54.0,25.0,29.70,West,268,5.0,23.0,32,0.00,,,0.00,,2013-01-20 19:22:00,
2013-01-20 14:33:00,53.0,20.0,29.70,West,267,15.0,16.0,27,0.00,,,0.00,,2013-01-20 19:33:00,
2013-01-20 14:43:00,53.0,20.0,29.70,West,267,15.0,16.0,27,0.00,,,0.00,,2013-01-20 19:43:00,
2013-01-20 14:52:00,52.0,20.0,29.72,WNW,291,11.0,19.0,28,0.00,,,0.00,,2013-01-20 19:52:00,
2013-01-20 15:03:00,53.0,20.0,29.73,WNW,302,6.0,16.0,27,0.00,,,0.00,,2013-01-20 20:03:00,
2013-01-20 15:12:00,53.0,20.0,29.73,WNW,302,6.0,16.0,27,0.00,,,0.00,,2013-01-20 20:12:00,
2013-01-20 15:23:00,52.0,17.0,29.74,West,281,5.0,24.0,25,0.00,,,0.00,,2013-01-20 20:23:00,
2013-01-20 15:33:00,52.0,16.0,29.75,West,268,14.0,19.0,24,0.00,,,0.00,,2013-01-20 20:33:00,
2013-01-20 15:42:00,52.0,16.0,29.75,West,268,14.0,19.0,24,0.00,,,0.00,,2013-01-20 20:42:00,
2013-01-20 15:53:00,51.0,16.0,29.76,West,267,17.0,22.0,24,0.00,,,0.00,,2013-01-20 20:53:00,
2013-01-20 16:04:00,50.0,16.0,29.77,WSW,248,17.0,21.0,25,0.00,,,0.00,,2013-01-20 21:04:00,
2013-01-20 16:13:00,50.0,16.0,29.77,WSW,248,17.0,21.0,25,0.00,,,0.00,,2013-01-20 21:13:00,
2013-01-20 16:23:00,50.0,16.0,29.78,NNW,328,5.0,15.0,25,0.00,,,0.00,,2013-01-20 21:23:00,
2013-01-20 16:33:00,48.0,14.0,29.80,West,278,14.0,16.0,25,0.00,,,0.00,,2013-01-20 21:33:00,
2013-01-20 16:43:00,48.0,14.0,29.80,West,278,14.0,16.0,25,0.00,,,0.00,,2013-01-20 21:43:00,
2013-01-20 16:53:00,48.0,16.0,29.80,West,270,3.0,19.0,27,0.00,,,0.00,,2013-01-20 21:53:00,
2013-01-20 17:03:00,46.0,14.0,29.83,WNW,301,5.0,19.0,27,0.00,,,0.00,,2013-01-20 22:03:00,
2013-01-20 17:13:00,46.0,14.0,29.83,WNW,301,5.0,19.0,27,0.00,,,0.00,,2013-01-20 22:13:00,
2013-01-20 17:23:00,46.0,14.0,29.83,NW,318,17.0,18.0,27,0.00,,,0.00,,2013-01-20 22:23:00,
2013-01-20 17:33:00,44.0,13.0,29.85,West,272,3.0,12.0,28,0.00,,,0.00,,2013-01-20 22:33:00,
2013-01-20 17:43:00,44.0,13.0,29.85,West,272,3.0,12.0,28,0.00,,,0.00,,2013-01-20 22:43:00,
2013-01-20 17:52:00,43.0,11.0,29.86,WSW,240,7.0,23.0,27,0.00,,,0.00,,2013-01-20 22:52:00,
2013-01-20 18:03:00,42.0,14.0,29.87,NW,304,5.0,11.0,31,0.00,,,0.00,,2013-01-20 23:03:00,
2013-01-20 18:13:00,42.0,14.0,29.87,NW,304,5.0,11.0,31,0.00,,,0.00,,2013-01-20 23:13:00,
2013-01-20 18:23:00,41.0,15.0,29.88,NNW,328,9.0,12.0,34,0.00,,,0.00,,2013-01-20 23:23:00,
2013-01-20 18:33:00,40.0,15.0,29.89,West,275,2.0,17.0,35,0.00,,,0.00,,2013-01-20 23:33:00,
2013-01-20 18:43:00,40.0,15.0,29.89,West,275,2.0,17.0,35,0.00,,,0.00,,2013-01-20 23:43:00,
2013-01-20 18:53:00,40.0,15.0,29.91,NW,323,10.0,12.0,36,0.00,,,0.00,,2013-01-20 23:53:00,
2013-01-20 19:03:00,38.0,15.0,29.92,NW,322,6.0,17.0,38,0.00,,,0.00,,2013-01-21 00:03:00,
2013-01-20 19:13:00,38.0,15.0,29.92,NW,322,6.0,17.0,38,0.00,,,0.00,,2013-01-21 00:13:00,
2013-01-20 19:23:00,38.0,15.0,29.93,NNW,328,5.0,14.0,39,0.00,,,0.00,,2013-01-21 00:23:00,
2013-01-20 19:33:00,36.0,14.0,29.94,NW,320,5.0,12.0,40,0.00,,,0.00,,2013-01-21 00:33:00,
2013-01-20 19:43:00,36.0,14.0,29.94,NW,320,5.0,12.0,40,0.00,,,0.00,,2013-01-21 00:43:00,
2013-01-20 19:53:00,36.0,14.0,29.94,WNW,291,6.0,10.0,40,0.00,,,0.00,,2013-01-21 00:53:00,
2013-01-20 20:03:00,35.0,14.0,29.96,NW,309,4.0,11.0,41,0.00,,,0.00,,2013-01-21 01:03:00,
2013-01-20 20:13:00,35.0,14.0,29.96,NW,309,4.0,11.0,41,0.00,,,0.00,,2013-01-21 01:13:00,
2013-01-20 20:23:00,35.0,14.0,29.96,WNW,289,3.0,17.0,41,0.00,,,0.00,,2013-01-21 01:23:00,
2013-01-20 20:33:00,35.0,14.0,29.97,WNW,298,5.0,11.0,42,0.00,,,0.00,,2013-01-21 01:33:00,
2013-01-20 20:43:00,35.0,14.0,29.97,WNW,298,5.0,11.0,42,0.00,,,0.00,,2013-01-21 01:43:00,
2013-01-20 20:53:00,34.0,13.0,29.97,WNW,292,4.0,19.0,42,0.00,,,0.00,,2013-01-21 01:53:00,
2013-01-20 21:03:00,34.0,13.0,29.97,NNW,333,2.0,17.0,42,0.00,,,0.00,,2013-01-21 02:03:00,
2013-01-20 21:12:00,34.0,13.0,29.97,NNW,333,2.0,17.0,42,0.00,,,0.00,,2013-01-21 02:12:00,
2013-01-20 21:23:00,33.0,12.0,29.98,West,278,11.0,15.0,42,0.00,,,0.00,,2013-01-21 02:23:00,
2013-01-20 21:33:00,33.0,12.0,29.98,NW,322,10.0,17.0,42,0.00,,,0.00,,2013-01-21 02:33:00,
2013-01-20 21:43:00,33.0,12.0,29.98,NW,322,10.0,17.0,42,0.00,,,0.00,,2013-01-21 02:43:00,
2013-01-20 21:53:00,32.0,11.0,29.98,WNW,285,1.0,17.0,41,0.00,,,0.00,,2013-01-21 02:53:00,
2013-01-20 22:03:00,32.0,12.0,29.98,West,281,7.0,15.0,42,0.00,,,0.00,,2013-01-21 03:03:00,
2013-01-20 22:13:00,32.0,12.0,29.98,West,281,7.0,15.0,42,0.00,,,0.00,,2013-01-21 03:13:00,
2013-01-20 22:23:00,32.0,12.0,30.00,NW,315,4.0,14.0,43,0.00,,,0.00,,2013-01-21 03:23:00,
2013-01-20 22:33:00,31.0,11.0,29.99,West,268,3.0,14.0,42,0.00,,,0.00,,2013-01-21 03:33:00,
2013-01-20 22:43:00,31.0,11.0,29.99,West,268,3.0,14.0,42,0.00,,,0.00,,2013-01-21 03:43:00,
2013-01-20 22:53:00,31.0,11.0,30.00,WNW,292,5.0,14.0,42,0.00,,,0.00,,2013-01-21 03:53:00,
2013-01-20 23:03:00,31.0,11.0,30.01,WNW,288,9.0,15.0,42,0.00,,,0.00,,2013-01-21 04:03:00,
2013-01-20 23:13:00,31.0,11.0,30.01,WNW,288,9.0,15.0,42,0.00,,,0.00,,2013-01-21 04:13:00,
2013-01-20 23:23:00,31.0,11.0,30.01,WNW,288,9.0,15.0,42,0.00,,,0.00,,2013-01-21 04:23:00,
2013-01-20 23:33:00,30.0,11.0,30.03,WNW,291,2.0,7.0,45,0.00,,,0.00,,2013-01-21 04:33:00,
2013-01-20 23:43:00,30.0,11.0,30.03,WNW,291,2.0,7.0,45,0.00,,,0.00,,2013-01-21 04:43:00,
2013-01-20 23:53:00,30.0,11.0,30.02,NW,308,3.0,9.0,44,0.00,,,0.00,,2013-01-21 04:53:00,